Location: Arnolds Mill
(42.3415°N, 73.5951°W)
Time: 05:51:19
(UTC+00:00)

Oscar 11 - Pass Details

Date: 08 May 2026
Orbit: 591 x 601 km, 97.8° (Epoch: 11 June)

Event Time Altitude Azimuth Distance (km) Brightness Sun altitude
Rises 08:55:08 0° 6° (N) 2,860 11.1 -8.2°
Reaches altitude 10° 08:57:22 10° 0° (N) 1,953 10.1 -7.9°
Maximum altitude 09:01:26 46° 288° (WNW) 813 7.4 -7.3°
Drops below altitude 10° 09:05:27 10° 215° (SW) 1,937 9.0 -6.6°
Enters shadow 09:06:35 - 211° (SSW) 2,393 9.5 -6.4°
